Change the Weather History Date:

Tuesday, March 26, 2013

  Actual Average Record
Temperature  
Mean Temperature 42 °F 48 °F  
Max Temperature 66 °F 64 °F 88 °F (1956)
Min Temperature 17 °F 32 °F 10 °F (1955)
Degree Days  
Heating Degree Days 23 17  
Month to date heating degree days 491 530  
Since 1 July heating degree days 3816 4173  
Cooling Degree Days 0 0  
Month to date cooling degree days 0 0  
Year to date cooling degree days 0 0  
Moisture  
Dew Point 14 °F    
Average Humidity 47    
Maximum Humidity 81    
Minimum Humidity 13    
Precipitation  
Precipitation 0.00 in 0.04 in 0.20 in (2009)
Month to date precipitation 0.06 0.95  
Year to date precipitation 0.86 1.87  
Snow  
Snow 0.00 in 0.10 in T in (1994)
Month to date snowfall 3.3 3.5  
Since 1 July snowfall 21.6 17.0  
Snow Depth 0.00 in    
Sea Level Pressure  
Sea Level Pressure 30.17 in    
Wind  
Wind Speed 16 mph (SSW)    
Max Wind Speed 33 mph    
Max Gust Speed 39 mph    
Visibility 10 miles    
Events      
T = Trace of Precipitation, MM = Missing Value Source: NWS Daily Summary

Daily Weather History Graph

Daily Weather History Graph

Search for Another Location

Airport or City:

Trip Planner

Search our weather history database for the weather conditions in past years. The results will help you decide how hot, cold, wet, or windy it might be!

Date:

Astronomy

Mar. 26, 2013 Rise Set
Actual Time 7:44 AM CDT 8:07 PM CDT
Civil Twilight 7:19 AM CDT 8:33 PM CDT
Nautical Twilight 6:48 AM CDT 9:03 PM CDT
Astronomical Twilight 6:18 AM CDT 9:33 PM CDT
Moon 7:45 PM CDT (3/26) 7:01 AM CDT (3/26)
Length of Visible Light 13h 13m
Length of Day
12h 22m
Waxing Gibbous, 99% of the Moon is Illuminated
Mar 26
Waxing Gibbous
Mar 27
Full
Apr 2
Last Quarter
Apr 10
New
Apr 18
First Quarter

Hourly Weather History & Observations

Time (CDT) Temp. Windchill Dew Point Humidity Pressure Visibility Wind Dir Wind Speed Gust Speed Precip Events Conditions
12:53 AM 27.0 °F 21.6 °F 19.0 °F 72% 30.37 in 10.0 mi SE 4.6 mph - N/A   Clear
1:53 AM 24.1 °F 16.0 °F 17.1 °F 75% 30.38 in 10.0 mi South 6.9 mph - N/A   Clear
2:53 AM 21.9 °F 14.5 °F 16.0 °F 78% 30.37 in 10.0 mi SSW 5.8 mph - N/A   Clear
3:53 AM 24.1 °F 19.7 °F 17.1 °F 75% 30.33 in 10.0 mi SW 3.5 mph - N/A   Clear
4:53 AM 23.0 °F 15.8 °F 17.1 °F 78% 30.31 in 10.0 mi South 5.8 mph - N/A   Clear
5:53 AM 21.9 °F 15.7 °F 15.1 °F 75% 30.30 in 10.0 mi South 4.6 mph - N/A   Clear
6:53 AM 21.0 °F 13.4 °F 14.0 °F 74% 30.31 in 10.0 mi South 5.8 mph - N/A   Clear
7:53 AM 21.0 °F 13.4 °F 14.0 °F 74% 30.32 in 10.0 mi SSE 5.8 mph - N/A   Clear
8:53 AM 28.0 °F 18.6 °F 19.0 °F 69% 30.32 in 10.0 mi South 10.4 mph - N/A   Clear
9:53 AM 36.0 °F 25.3 °F 17.1 °F 46% 30.29 in 10.0 mi SSW 19.6 mph 26.5 mph N/A   Clear
10:53 AM 43.0 °F 34.0 °F 15.1 °F 32% 30.26 in 10.0 mi SSW 21.9 mph 28.8 mph N/A   Clear
11:53 AM 46.9 °F - 12.0 °F 24% 30.22 in 10.0 mi SSW 27.6 mph 35.7 mph N/A   Clear
12:53 PM 52.0 °F - 12.0 °F 20% 30.18 in 10.0 mi SW 26.5 mph 36.8 mph N/A   Clear
1:53 PM 57.0 °F - 12.0 °F 17% 30.13 in 10.0 mi SW 24.2 mph 33.4 mph N/A   Clear
2:53 PM 60.1 °F - 10.9 °F 14% 30.09 in 10.0 mi SSW 26.5 mph 38.0 mph N/A   Clear
3:53 PM 63.0 °F - 10.9 °F 13% 30.03 in 10.0 mi SSW 24.2 mph 34.5 mph N/A   Clear
4:53 PM 63.0 °F - 10.9 °F 13% 30.01 in 10.0 mi SW 20.7 mph 32.2 mph N/A   Clear
5:53 PM 62.1 °F - 10.9 °F 13% 29.99 in 10.0 mi SW 20.7 mph - N/A   Clear
6:53 PM 62.1 °F - 12.0 °F 14% 29.98 in 10.0 mi SSW 20.7 mph - N/A   Clear
7:53 PM 60.1 °F - 10.9 °F 14% 29.97 in 10.0 mi South 19.6 mph - N/A   Clear
8:53 PM 54.0 °F - 12.0 °F 19% 29.97 in 10.0 mi South 16.1 mph - N/A   Clear
9:53 PM 52.0 °F - 14.0 °F 22% 29.96 in 10.0 mi South 17.3 mph - N/A   Clear
10:53 PM 50.0 °F - 14.0 °F 24% 29.96 in 10.0 mi South 17.3 mph - N/A   Clear
11:53 PM 48.0 °F - 14.0 °F 26% 29.95 in 10.0 mi South 18.4 mph - N/A   Clear